Notices

What's New in latest Release from April 7th, 2021:

- Updated Glossary, including Speed of Maximum Gust, and Total Hourly Precipitation

- Updated national and regional climate services offices contacts and prices information

- Addition of station inventory lists for 1981-2010, 1971-2000, and 1961-1990 Normals.

If you haven't already, please take our survey and provide feedback about our website: https://eccc.sondage-survey.ca/f/LanguageSelection.aspx?s=442ca660-fcf1-47c0-95a9-59707d6fd709

Hourly Data Report for November 17, 2016

VICTORIA UNIVERSITY CS
BRITISH COLUMBIA

48°27'25.200" N
123°18'16.600" W
60.10 m
1018598
71783
WYJ

Download Data

Hourly Data (November 2016)
Hourly Data Report for November 17, 2016
TIME
LST
Temp Definition
°C
Dew Point Definition
°C
Rel Hum Definition
%
Precip. Amount Definition
mm

Wind Dir Definition
10's deg

Wind Spd Definition
km/h
Visibility Definition
km
Stn Press Definition
kPa
Hmdx Definition


Wind Chill Definition


Weather Definition


00:00 4.6 4.4 98 0.0 30 2   101.07     LegendNANA
01:00 4.8 4.6 99 0.0   0   101.07     LegendNANA
02:00 4.4 4.2 99 0.0 30 3   101.09     LegendNANA
03:00 4.9 4.8 99 0.0 27 2   101.13     LegendNANA
04:00 5.2 5.0 99 0.0 26 2   101.14     LegendNANA
05:00 4.2 4.1 99 0.0 0 1   101.14     LegendNANA
06:00 4.2 4.1 100 0.2 0 1   101.15     LegendNANA
07:00 4.1 4.0 100 0.0 34 1   101.18     LegendNANA
08:00 4.2 4.2 100 0.0   0   101.23     LegendNANA
09:00 7.0 6.9 100 0.0 9 3   101.28     LegendNANA
10:00 8.3 6.6 89 0.0 9 3   101.32     LegendNANA
11:00 9.0 6.1 82 0.0 10 4   101.36     LegendNANA
12:00 8.6 5.6 82 0.0 11 3   101.35     LegendNANA
13:00 8.6 6.0 84 0.0 9 3   101.35     LegendNANA
14:00 9.1 6.1 81 0.0 9 3   101.36     LegendNANA
15:00 9.6 6.2 80 0.0 9 1   101.36     LegendNANA
16:00 8.9 5.6 79 0.0 22 1   101.38     LegendNANA
17:00 6.9 5.2 89 0.0 0 1   101.38     LegendNANA
18:00 7.3 6.1 92 0.0 7 2   101.42     LegendNANA
19:00 6.9 5.5 91 0.0 35 1   101.43     LegendNANA
20:00 8.2 6.1 87 0.0 7 5   101.41     LegendNANA
21:00 8.2 5.8 85 0.0 7 7   101.44     LegendNANA
22:00 8.0 5.7 85 0.0 5 5   101.43     LegendNANA
23:00 7.3 5.4 88 0.0 7 3   101.44     LegendNANA

Notes on Data Quality.

Legend

  • E = Estimated
  • M = Missing
  • NA = Not Available*
  • [empty] = Indicates an unobserved value
Date modified: